{"data":{"norad_id":62092,"intl_designator":"2024-220E","name":"STARLINK-11388 [DTC]","alt_names":[],"object_type":"PAYLOAD","status":"ACTIVE","operator":null,"country":"US","launch_date":"2024-11-25","launch_site_code":"AFETR","launch_vehicle":null,"mission":null,"orbit_class":"UNKNOWN","rcs_meters":null,"size_class":null,"mass_kg":null,"dimensions":null,"purposes":["comms"],"wikipedia_slug":null,"has_3d_model":false,"image_url":null,"decayed_at":null,"tle_current":{"epoch":"2026-05-24T19:22:35.516928Z","epoch_age_seconds":91046,"freshness":"FRESH","line1":"1 62092U 24220E   26144.80735552  .00205930  00000+0  15660-2 0  9999","line2":"2 62092  43.0031 304.3387 0002442 273.1392  86.9196 15.70883469 86924","mean_motion":15.70883469,"eccentricity":0.0002442,"inclination_deg":43.0031,"raan_deg":304.3387,"arg_perigee_deg":273.1392,"mean_anomaly_deg":86.9196,"bstar":0.001566,"rev_number":8692,"period_min":91.668161796666,"perigee_km":354.7262550861,"apogee_km":358.01538870632,"semimajor_km":6734.5078218962,"source":"CELESTRAK","updated_at":"2026-05-25T13:38:19.557669Z"}}}